Rochester, NY

4:36 PM EDT on May 24, 2017 (GMT -0400)
Greater Rochester International

Weather History for KROC - May, 2013

Change the Weather History Date:

Sunday, May 19, 2013

  Actual Average Record
Temperature  
Mean Temperature 70 °F 58 °F  
Max Temperature 81 °F 69 °F 89 °F (1971)
Min Temperature 59 °F 47 °F 34 °F (1981)
Degree Days  
Heating Degree Days 0 8  
Month to date heating degree days 108 199  
Since 1 July heating degree days 5932 6502  
Cooling Degree Days 5 1  
Month to date cooling degree days 10 10  
Year to date cooling degree days 11 14  
Growing Degree Days 20 (Base 50)    
Moisture  
Dew Point 56 °F    
Average Humidity 66    
Maximum Humidity 80    
Minimum Humidity 52    
Precipitation  
Precipitation 0.00 in 0.10 in 1.66 in (1928)
Month to date precipitation 1.58 1.72  
Year to date precipitation 9.45 11.31  
Snow  
Snow 0.00 in 0.10 in 0.40 in (1976)
Month to date snowfall T 0.4  
Since 1 July snowfall 78.1 99.5  
Snow Depth 0.00 in    
Sea Level Pressure  
Sea Level Pressure 30.08 in    
Wind  
Wind Speed 7 mph (South)    
Max Wind Speed 16 mph    
Max Gust Speed 23 mph    
Visibility 10 miles    
Events      
T = Trace of Precipitation, MM = Missing Value Source: NWS Daily Summary

Daily Weather History Graph

Daily Weather History Graph

Search for Another Location

Airport or City:

Trip Planner

Search our weather history database for the weather conditions in past years. The results will help you decide how hot, cold, wet, or windy it might be!

Date:

Astronomy

May. 19, 2013 Rise Set
Actual Time 5:42 AM EDT 8:31 PM EDT
Civil Twilight 5:09 AM EDT 9:05 PM EDT
Nautical Twilight 4:27 AM EDT 9:47 PM EDT
Astronomical Twilight 3:39 AM EDT 10:36 PM EDT
Moon 2:25 PM EDT (5/19) 2:15 AM EDT (5/19)
Length of Visible Light 15h 55m
Length of Day
14h 48m
Waxing Gibbous, 65% of the Moon is Illuminated
May 19
Waxing Gibbous
May 25
Full
May 31
Last Quarter
Jun 8
New
Jun 16
First Quarter

Hourly Weather History & Observations

Time (EDT) Temp. Dew Point Humidity Pressure Visibility Wind Dir Wind Speed Gust Speed Precip Events Conditions
12:54 AM 60.1 °F 50.0 °F 69% 30.15 in 10.0 mi SE 5.8 mph - N/A   Overcast
1:54 AM 60.1 °F 51.1 °F 72% 30.14 in 10.0 mi SE 6.9 mph - N/A   Mostly Cloudy
2:54 AM 60.1 °F 51.1 °F 72% 30.14 in 10.0 mi SE 5.8 mph - N/A   Mostly Cloudy
3:54 AM 59.0 °F 51.1 °F 75% 30.13 in 10.0 mi ESE 3.5 mph - N/A   Overcast
4:54 AM 59.0 °F 52.0 °F 78% 30.13 in 10.0 mi SE 3.5 mph - N/A   Overcast
5:54 AM 60.1 °F 53.1 °F 78% 30.13 in 10.0 mi SSE 5.8 mph - N/A   Mostly Cloudy
6:54 AM 59.0 °F 53.1 °F 81% 30.14 in 10.0 mi SE 6.9 mph - N/A   Mostly Cloudy
7:54 AM 60.8 °F 53.6 °F 77% 30.14 in 10.0 mi SSE 6.9 mph - N/A   Mostly Cloudy
8:54 AM 64.9 °F 55.9 °F 73% 30.15 in 10.0 mi South 5.8 mph - N/A   Mostly Cloudy
9:54 AM 68.0 °F 57.0 °F 68% 30.14 in 10.0 mi South 11.5 mph - N/A   Mostly Cloudy
10:54 AM 70.0 °F 57.9 °F 65% 30.13 in 10.0 mi South 8.1 mph - N/A   Mostly Cloudy
11:54 AM 71.1 °F 57.9 °F 63% 30.11 in 10.0 mi SSW 10.4 mph - N/A   Mostly Cloudy
12:54 PM 73.0 °F 59.0 °F 61% 30.09 in 10.0 mi South 6.9 mph - N/A   Mostly Cloudy
1:54 PM 75.0 °F 59.0 °F 57% 30.06 in 10.0 mi South 10.4 mph - N/A   Mostly Cloudy
2:54 PM 78.8 °F 60.8 °F 54% 30.04 in 10.0 mi WSW 5.8 mph - N/A   Mostly Cloudy
3:54 PM 78.8 °F 60.8 °F 54% 30.02 in 10.0 mi Calm Calm - N/A   Mostly Cloudy
4:54 PM 79.0 °F 59.0 °F 50% 30.01 in 10.0 mi SSW 4.6 mph - N/A   Mostly Cloudy
5:54 PM 79.0 °F 60.1 °F 52% 29.99 in 10.0 mi SSW 9.2 mph - N/A   Mostly Cloudy
6:54 PM 77.0 °F 59.0 °F 54% 30.00 in 10.0 mi South 9.2 mph - N/A   Overcast
7:54 PM 73.9 °F 59.0 °F 59% 30.01 in 10.0 mi South 10.4 mph 17.3 mph N/A   Overcast
8:54 PM 71.1 °F 57.9 °F 63% 30.01 in 10.0 mi South 6.9 mph - N/A   Overcast
9:54 PM 69.1 °F 57.9 °F 68% 30.02 in 10.0 mi South 8.1 mph - N/A   Mostly Cloudy
10:54 PM 66.9 °F 57.9 °F 73% 30.03 in 10.0 mi SSW 12.7 mph 17.3 mph N/A   Mostly Cloudy
11:54 PM 66.2 °F 57.2 °F 73% 30.03 in 10.0 mi SSW 6.9 mph - N/A   Mostly Cloudy